{"data":{"norad_id":63844,"epoch":"2026-09-19T18:55:40.385568Z","epoch_age_seconds":211317,"freshness":"STALE","line1":"1 63844U 25093J   26262.78866187  .00013305  00000+0  49188-3 0  9997","line2":"2 63844  43.0041  62.0309 0002794 280.0770  79.9767 15.27597577 77650","mean_motion":15.27597577,"eccentricity":0.0002794,"inclination_deg":43.0041,"raan_deg":62.0309,"arg_perigee_deg":280.077,"mean_anomaly_deg":79.9767,"bstar":0.00049188,"rev_number":7765,"period_min":94.265664051914,"perigee_km":481.07946399299,"apogee_km":484.91346537306,"semimajor_km":6861.133464683,"source":"CELESTRAK","updated_at":"2026-09-21T09:00:35.132758Z"}}